星链-3231 (STARLINK-3231 )

导读

STARLINK-3231是美国SpaceX公司星链互联网星座中的一颗低轨卫星,于北京时间2021年12月2日发射入轨。它运行在近地轨道,作为星链巨型星座的组成部分,承担全球覆盖的高速卫星互联网接入服务,尤其为偏远、欠发达地区提供宽带网络连接,是SpaceX推进全球卫星互联网部署的重要一环,目前正常在轨运行,服务全球用户的卫星联网需求。

基本信息
目录编号:
49744
目录名称:
STARLINK-3231
国际标识:
2021-115W
轨道中心:
EARTH
卫星名称:
星链-3231
卫星全名:
星链-3231 (STARLINK-3231 )
卫星状态:
在轨 (已飞行1745 天)
发射日期:
2021-12-02 UTC
国别 :
美国 (US)
星等 :
--
该卫星已列入 空间交会检测服务 Space Conjunction Data Service (SCDS) ,当前飞行风险评估等级: 无高风险
轨道信息
数据来源 国际轨道数据
星历时间: 2026-09-11T23:05:04+0800
12小时前
查看轨道信息
半长轴: 6848.863km
偏心率: 0.0001119
轨道倾角: 53.163°
近地点辐角 75.499°
升交点赤经 21.061°
平近点角 284.613°
近地点: 469.959km
远地点: 471.493km
周期: 94.013分钟
每日圈数: 15.317048
详细信息
固有亮度:
5
最大亮度:
2.5
卫星平台:
Starlink v1.5
覆盖范围:
全球
运营商:
太空探索技术公司
运营商所在国:
美国
制造商(研发单位):
太空探索技术公司
制造商所在国:
美国
使用方式:
暂无
卫星简介
星链(Starlink)计划是由太空探索技术公司(SpaceX)提出的一个巨型低轨卫星互联网星座项目,计划在2019年至2024年间在太空搭建由约1.2万颗卫星组成的“星链”网络,其中1584颗将部署在地球上空550千米处的近地轨道,并从2020年开始工作。该卫星仍在工作。
2D轨道图
3D轨道图
轨道高度分析图
轨道倾角分析图
轨道综合分析图
查看轨道综合分析图
与全量物体交会距离演化趋势
与全量物体交会风险概率演化趋势